Location: Oberkirch
(48.5323°N, 8.0787°E)
Time: 16:16:49
(UTC+00:00)

SR - Pass Details

Date: 24 February 2026
Orbit: 572 x 848 km, 66.7° (Epoch: 8 March)

Event Time Altitude Azimuth Distance (km) Brightness Sun altitude
Exits shadow 04:14:27 24° 331° (NNW) 1,298 ? -21.3°
Drops below altitude 10° 04:17:48 10° 17° (NNE) 2,050 ? -20.8°
Sets 04:20:34 0° 32° (NNE) 3,015 ? -20.3°
